Time,TemperatureF,DewpointF,PressureIn,WindDirection,WindDirectionDegrees,WindSpeedMPH,WindSpeedGustMPH,Humidity,HourlyPrecipIn,Conditions,Clouds,dailyrainin,SoftwareType,DateUTC
2013-04-03 00:00:00,38.0,10.0,-100.00,WSW,256,13.0,19.0,30,0.00,,,0.00,,2013-04-03 06:00:00,
2013-04-03 00:42:00,38.0,10.0,-100.00,WSW,256,13.0,19.0,30,0.00,,,0.00,,2013-04-03 06:42:00,
2013-04-03 00:52:00,38.0,10.0,-100.00,WSW,256,13.0,19.0,30,0.00,,,0.00,,2013-04-03 06:52:00,
2013-04-03 01:42:00,38.0,9.0,-100.00,WSW,256,14.0,20.0,29,0.00,,,0.00,,2013-04-03 07:42:00,
2013-04-03 01:53:00,38.0,9.0,-100.00,WSW,256,14.0,20.0,29,0.00,,,0.00,,2013-04-03 07:53:00,
2013-04-03 02:00:00,38.0,12.0,-100.00,WSW,244,13.0,18.0,33,0.00,,,0.00,,2013-04-03 08:00:00,
2013-04-03 02:42:00,38.0,12.0,-100.00,WSW,244,13.0,18.0,33,0.00,,,0.00,,2013-04-03 08:42:00,
2013-04-03 02:52:00,38.0,12.0,-100.00,WSW,244,13.0,18.0,33,0.00,,,0.00,,2013-04-03 08:52:00,
2013-04-03 03:00:00,38.0,12.0,-100.00,SW,233,11.0,15.0,33,0.00,,,0.00,,2013-04-03 09:00:00,
2013-04-03 03:43:00,38.0,12.0,-100.00,SW,233,11.0,15.0,33,0.00,,,0.00,,2013-04-03 09:43:00,
2013-04-03 03:53:00,38.0,12.0,-100.00,SW,233,11.0,15.0,33,0.00,,,0.00,,2013-04-03 09:53:00,
2013-04-03 04:00:00,38.0,11.0,-100.00,WSW,241,12.0,16.0,33,0.00,,,0.00,,2013-04-03 10:00:00,
2013-04-03 04:42:00,38.0,11.0,-100.00,WSW,241,12.0,16.0,33,0.00,,,0.00,,2013-04-03 10:42:00,
2013-04-03 04:53:00,38.0,11.0,-100.00,WSW,241,12.0,16.0,33,0.00,,,0.00,,2013-04-03 10:53:00,
2013-04-03 05:00:00,38.0,12.0,-100.00,WSW,242,8.0,12.0,33,0.00,,,0.00,,2013-04-03 11:00:00,
2013-04-03 05:42:00,38.0,12.0,-100.00,WSW,242,8.0,12.0,33,0.00,,,0.00,,2013-04-03 11:42:00,
2013-04-03 05:53:00,38.0,12.0,-100.00,WSW,242,8.0,12.0,33,0.00,,,0.00,,2013-04-03 11:53:00,
2013-04-03 06:00:00,38.0,11.0,-100.00,WSW,243,10.0,14.0,33,0.00,,,0.00,,2013-04-03 12:00:00,
2013-04-03 06:42:00,38.0,11.0,-100.00,WSW,243,10.0,14.0,33,0.00,,,0.00,,2013-04-03 12:42:00,
2013-04-03 06:52:00,38.0,11.0,-100.00,WSW,243,10.0,14.0,33,0.00,,,0.00,,2013-04-03 12:52:00,
2013-04-03 07:00:00,37.0,11.0,-100.00,WSW,251,13.0,16.0,34,0.00,,,0.00,,2013-04-03 13:00:00,
2013-04-03 07:42:00,37.0,11.0,-100.00,WSW,251,13.0,16.0,34,0.00,,,0.00,,2013-04-03 13:42:00,
2013-04-03 07:52:00,37.0,11.0,-100.00,WSW,251,13.0,16.0,34,0.00,,,0.00,,2013-04-03 13:52:00,
2013-04-03 08:00:00,42.0,10.0,-100.00,WSW,256,12.0,15.0,27,0.00,,,0.00,,2013-04-03 14:00:00,
2013-04-03 08:42:00,42.0,10.0,-100.00,WSW,256,12.0,15.0,27,0.00,,,0.00,,2013-04-03 14:42:00,
2013-04-03 08:52:00,42.0,10.0,-100.00,WSW,256,12.0,15.0,27,0.00,,,0.00,,2013-04-03 14:52:00,
2013-04-03 09:00:00,49.0,12.0,-100.00,WSW,237,5.0,11.0,22,0.00,,,0.00,,2013-04-03 15:00:00,
2013-04-03 09:42:00,49.0,12.0,-100.00,WSW,237,5.0,11.0,22,0.00,,,0.00,,2013-04-03 15:42:00,
2013-04-03 09:53:00,49.0,12.0,-100.00,WSW,237,5.0,11.0,22,0.00,,,0.00,,2013-04-03 15:53:00,
2013-04-03 10:00:00,52.0,16.0,-100.00,ENE,67,7.0,12.0,24,0.00,,,0.00,,2013-04-03 16:00:00,
2013-04-03 10:43:00,52.0,16.0,-100.00,ENE,67,7.0,12.0,24,0.00,,,0.00,,2013-04-03 16:43:00,
2013-04-03 10:52:00,52.0,16.0,-100.00,ENE,67,7.0,12.0,24,0.00,,,0.00,,2013-04-03 16:52:00,
2013-04-03 11:00:00,53.0,15.0,-100.00,NE,54,10.0,14.0,22,0.00,,,0.00,,2013-04-03 17:00:00,
2013-04-03 11:45:00,53.0,15.0,-100.00,NE,54,10.0,14.0,22,0.00,,,0.00,,2013-04-03 17:45:00,
2013-04-03 11:53:00,53.0,15.0,-100.00,NE,54,10.0,14.0,22,0.00,,,0.00,,2013-04-03 17:53:00,
2013-04-03 12:00:00,51.0,16.0,-100.00,NNE,32,8.0,10.0,24,0.00,,,0.00,,2013-04-03 18:00:00,
2013-04-03 12:42:00,51.0,16.0,-100.00,NNE,32,8.0,10.0,24,0.00,,,0.00,,2013-04-03 18:42:00,
2013-04-03 12:52:00,51.0,16.0,-100.00,NNE,32,8.0,10.0,24,0.00,,,0.00,,2013-04-03 18:52:00,
2013-04-03 13:00:00,53.0,18.0,-100.00,NE,41,7.0,10.0,25,0.00,,,0.00,,2013-04-03 19:00:00,
2013-04-03 13:42:00,53.0,18.0,-100.00,NE,41,7.0,10.0,25,0.00,,,0.00,,2013-04-03 19:42:00,
2013-04-03 13:52:00,53.0,18.0,-100.00,NE,41,7.0,10.0,25,0.00,,,0.00,,2013-04-03 19:52:00,
2013-04-03 14:00:00,55.0,19.0,-100.00,ENE,76,7.0,9.0,24,0.00,,,0.00,,2013-04-03 20:00:00,
2013-04-03 14:42:00,55.0,19.0,-100.00,ENE,76,7.0,9.0,24,0.00,,,0.00,,2013-04-03 20:42:00,
2013-04-03 14:53:00,55.0,19.0,-100.00,ENE,76,7.0,9.0,24,0.00,,,0.00,,2013-04-03 20:53:00,
2013-04-03 15:00:00,56.0,18.0,-100.00,ENE,75,9.0,11.0,22,0.00,,,0.00,,2013-04-03 21:00:00,
2013-04-03 15:42:00,56.0,18.0,-100.00,ENE,75,9.0,11.0,22,0.00,,,0.00,,2013-04-03 21:42:00,
2013-04-03 15:52:00,56.0,18.0,-100.00,ENE,75,9.0,11.0,22,0.00,,,0.00,,2013-04-03 21:52:00,
2013-04-03 16:00:00,56.0,18.0,-100.00,East,91,1.0,4.0,22,0.00,,,0.00,,2013-04-03 22:00:00,
2013-04-03 16:42:00,56.0,18.0,-100.00,East,91,1.0,4.0,22,0.00,,,0.00,,2013-04-03 22:42:00,
2013-04-03 16:52:00,56.0,18.0,-100.00,East,91,1.0,4.0,22,0.00,,,0.00,,2013-04-03 22:52:00,
2013-04-03 17:00:00,52.0,22.0,-100.00,ENE,64,12.0,14.0,31,0.00,,,0.00,,2013-04-03 23:00:00,
2013-04-03 17:42:00,52.0,22.0,-100.00,ENE,64,12.0,14.0,31,0.00,,,0.00,,2013-04-03 23:42:00,
2013-04-03 17:54:00,52.0,22.0,-100.00,ENE,64,12.0,14.0,31,0.00,,,0.00,,2013-04-03 23:54:00,
2013-04-03 18:00:00,50.0,24.0,-100.00,SE,136,1.0,3.0,36,0.00,,,0.00,,2013-04-04 00:00:00,
2013-04-03 18:43:00,50.0,24.0,-100.00,SE,136,1.0,3.0,36,0.00,,,0.00,,2013-04-04 00:43:00,
2013-04-03 18:52:00,50.0,24.0,-100.00,SE,136,1.0,3.0,36,0.00,,,0.00,,2013-04-04 00:52:00,
2013-04-03 19:00:00,49.0,25.0,-100.00,ENE,59,7.0,9.0,39,0.00,,,0.00,,2013-04-04 01:00:00,
2013-04-03 19:32:00,49.0,25.0,-100.00,ENE,59,7.0,9.0,39,0.00,,,0.00,,2013-04-04 01:32:00,
2013-04-03 19:43:00,49.0,25.0,-100.00,ENE,59,7.0,9.0,39,0.00,,,0.00,,2013-04-04 01:43:00,
2013-04-03 19:52:00,49.0,25.0,-100.00,ENE,59,7.0,9.0,39,0.00,,,0.00,,2013-04-04 01:52:00,
2013-04-03 20:00:00,44.0,24.0,-100.00,NW,322,2.0,3.0,45,0.00,,,0.00,,2013-04-04 02:00:00,
2013-04-03 21:00:00,41.0,26.0,-100.00,WSW,239,5.0,7.0,54,0.00,,,0.00,,2013-04-04 03:00:00,
2013-04-03 21:43:00,41.0,26.0,-100.00,WSW,239,5.0,7.0,54,0.00,,,0.00,,2013-04-04 03:43:00,
2013-04-03 21:53:00,41.0,26.0,-100.00,WSW,239,5.0,7.0,54,0.00,,,0.00,,2013-04-04 03:53:00,
2013-04-03 22:00:00,40.0,24.0,-100.00,SW,234,11.0,14.0,53,0.00,,,0.00,,2013-04-04 04:00:00,
2013-04-03 22:42:00,40.0,24.0,-100.00,SW,234,11.0,14.0,53,0.00,,,0.00,,2013-04-04 04:42:00,
2013-04-03 22:53:00,40.0,24.0,-100.00,SW,234,11.0,14.0,53,0.00,,,0.00,,2013-04-04 04:53:00,